{"data":{"norad_id":63665,"epoch":"2026-05-24T11:05:03.698304Z","epoch_age_seconds":121698,"freshness":"FRESH","line1":"1 63665U 25085B   26144.46184836  .00153535  00000+0  11773-2 0  9995","line2":"2 63665  42.9997 181.2532 0002138 271.2794  88.7829 15.70854115 62777","mean_motion":15.70854115,"eccentricity":0.0002138,"inclination_deg":42.9997,"raan_deg":181.2532,"arg_perigee_deg":271.2794,"mean_anomaly_deg":88.7829,"bstar":0.0011773,"rev_number":6277,"period_min":91.66987476746,"perigee_km":355.01486284956,"apogee_km":357.89457426841,"semimajor_km":6734.591718559,"source":"CELESTRAK","updated_at":"2026-05-25T13:38:20.090232Z"}}